Telluride, CO

10:49 PM MDT on April 30, 2017 (GMT -0600)
Telluride Regional

Weather History for KTEX - July, 2012

Change the Weather History Date:

Tuesday, July 31, 2012

  Actual Average Record
Temperature  
Mean Temperature 61 °F -  
Max Temperature 71 °F 70 °F 84 °F (2002)
Min Temperature 51 °F 49 °F 48 °F (2002)
Degree Days  
Heating Degree Days 4    
Growing Degree Days 11 (Base 50)    
Moisture  
Dew Point 49 °F    
Average Humidity 71    
Maximum Humidity 94    
Minimum Humidity 38    
Precipitation  
Precipitation 0.79 in - - ()
Sea Level Pressure  
Sea Level Pressure 30.51 in    
Wind  
Wind Speed 4 mph (SE)    
Max Wind Speed 21 mph    
Max Gust Speed 34 mph    
Visibility 10 miles    
Events Rain , Thunderstorm    
Averages and records for this station are not official NWS values.
T = Trace of Precipitation, MM = Missing Value Source: NWS Daily Summary

Daily Weather History Graph

Daily Weather History Graph

Search for Another Location

Airport or City:

Trip Planner

Search our weather history database for the weather conditions in past years. The results will help you decide how hot, cold, wet, or windy it might be!

Date:

Astronomy

Jul. 31, 2012 Rise Set
Actual Time 6:14 AM MDT 8:21 PM MDT
Civil Twilight 5:45 AM MDT 8:50 PM MDT
Nautical Twilight 5:09 AM MDT 9:25 PM MDT
Astronomical Twilight 4:30 AM MDT 10:04 PM MDT
Moon 7:12 PM MDT (7/31) 4:39 AM MDT (7/31)
Length of Visible Light 15h 05m
Length of Day
14h 06m
Waxing Gibbous, 97% of the Moon is Illuminated
Jul 31
Waxing Gibbous
Aug 1
Full
Aug 9
Last Quarter
Aug 17
New
Aug 24
First Quarter

Hourly Weather History & Observations

Time (MDT) Temp. Dew Point Humidity Pressure Visibility Wind Dir Wind Speed Gust Speed Precip Events Conditions
12:15 AM 59.0 °F 50.0 °F 72% 30.49 in 10.0 mi ESE 5.8 mph - N/A   Clear
12:35 AM 59.0 °F 50.0 °F 72% 30.49 in 10.0 mi SE 5.8 mph - N/A   Clear
12:55 AM 59.0 °F 50.0 °F 72% 30.49 in 10.0 mi ESE 5.8 mph - N/A   Clear
1:15 AM 57.2 °F 50.0 °F 77% 30.48 in 10.0 mi SE 5.8 mph - N/A   Clear
1:35 AM 57.2 °F 50.0 °F 77% 30.48 in 10.0 mi Calm Calm - N/A   Clear
1:55 AM 55.4 °F 50.0 °F 82% 30.48 in 10.0 mi SE 4.6 mph - N/A   Clear
2:15 AM 55.4 °F 50.0 °F 82% 30.48 in 10.0 mi ESE 5.8 mph - N/A   Clear
2:35 AM 55.4 °F 50.0 °F 82% 30.48 in 10.0 mi ESE 6.9 mph - N/A   Clear
2:55 AM 55.4 °F 48.2 °F 77% 30.48 in 10.0 mi ESE 5.8 mph - N/A Thunderstorm Clear
3:15 AM 55.4 °F 48.2 °F 77% 30.48 in 10.0 mi SE 4.6 mph - N/A   Clear
3:35 AM 55.4 °F 50.0 °F 82% 30.48 in 10.0 mi SE 6.9 mph - N/A   Clear
3:55 AM 53.6 °F 48.2 °F 82% 30.48 in 10.0 mi ESE 4.6 mph - N/A   Clear
4:15 AM 53.6 °F 50.0 °F 88% 30.48 in 10.0 mi ESE 5.8 mph - N/A   Clear
4:35 AM 53.6 °F 50.0 °F 88% 30.48 in 10.0 mi Calm Calm - N/A   Clear
4:55 AM 53.6 °F 50.0 °F 88% 30.50 in 10.0 mi Calm Calm - N/A   Scattered Clouds
5:15 AM 53.6 °F 48.2 °F 82% 30.51 in 10.0 mi SSE 3.5 mph - N/A   Scattered Clouds
5:35 AM 53.6 °F 48.2 °F 82% 30.52 in 10.0 mi SSE 6.9 mph - N/A Thunderstorm Clear
5:55 AM 53.6 °F 48.2 °F 82% 30.53 in 10.0 mi Calm Calm - N/A Thunderstorm Clear
6:15 AM 53.6 °F 48.2 °F 82% 30.53 in 10.0 mi Calm Calm - N/A Thunderstorm Clear
6:35 AM 53.6 °F 48.2 °F 82% 30.53 in 10.0 mi Calm Calm - N/A   Clear
6:55 AM 53.6 °F 48.2 °F 82% 30.53 in 10.0 mi Calm Calm - N/A   Clear
7:15 AM 53.6 °F 50.0 °F 88% 30.54 in 10.0 mi Calm Calm - N/A   Clear
7:35 AM 55.4 °F 50.0 °F 82% 30.54 in 10.0 mi Calm Calm - N/A   Clear
7:55 AM 55.4 °F 48.2 °F 77% 30.54 in 10.0 mi Calm Calm - N/A Thunderstorm Thunderstorm
8:15 AM 57.2 °F 48.2 °F 72% 30.55 in 10.0 mi Calm Calm - N/A   Clear
8:35 AM 59.0 °F 50.0 °F 72% 30.55 in 10.0 mi Calm Calm - N/A   Clear
8:55 AM 59.0 °F 48.2 °F 67% 30.55 in 10.0 mi Calm Calm - N/A   Clear
9:15 AM 60.8 °F 50.0 °F 68% 30.55 in 10.0 mi Calm Calm - N/A   Clear
9:35 AM 62.6 °F 50.0 °F 63% 30.55 in 10.0 mi Calm Calm - N/A Thunderstorm Clear
9:55 AM 64.4 °F 48.2 °F 56% 30.54 in 10.0 mi West 3.5 mph - N/A   Clear
10:15 AM 64.4 °F 50.0 °F 59% 30.54 in 10.0 mi Calm Calm - N/A   Scattered Clouds
10:35 AM 66.2 °F 50.0 °F 56% 30.54 in 10.0 mi Calm Calm - N/A   Scattered Clouds
11:15 AM 68.0 °F 50.0 °F 52% 30.53 in 10.0 mi Calm Calm - N/A   Scattered Clouds
11:35 AM 68.0 °F 50.0 °F 52% 30.53 in 10.0 mi South 3.5 mph - N/A   Clear
11:55 AM 71.6 °F 46.4 °F 41% 30.53 in 10.0 mi WSW 6.9 mph - N/A   Scattered Clouds
12:15 PM 71.6 °F 46.4 °F 41% 30.52 in 10.0 mi South 5.8 mph - N/A   Scattered Clouds
12:35 PM 71.6 °F 46.4 °F 41% 30.51 in 10.0 mi WSW 4.6 mph - N/A   Clear
1:15 PM 71.6 °F 44.6 °F 38% 30.51 in 10.0 mi Calm Calm - N/A Thunderstorm Clear
1:35 PM 71.6 °F 46.4 °F 41% 30.49 in 10.0 mi Calm Calm - N/A Thunderstorm Thunderstorm
1:55 PM 69.8 °F 48.2 °F 46% 30.50 in 7.0 mi SSE 6.9 mph - 0.02 in Rain , Thunderstorm Thunderstorms and Rain
2:15 PM 59.0 °F 48.2 °F 67% 30.53 in 1.8 mi South 5.8 mph 27.6 mph 0.41 in Rain , Thunderstorm Heavy Thunderstorms and Rain
2:35 PM 53.6 °F 51.8 °F 94% 30.51 in 1.2 mi North 5.8 mph - 0.65 in Rain , Thunderstorm Heavy Thunderstorms and Rain
2:55 PM 57.2 °F 48.2 °F 72% 30.52 in 7.0 mi East 4.6 mph - 0.69 in Rain , Thunderstorm Light Thunderstorms and Rain
3:15 PM 59.0 °F 51.8 °F 77% 30.49 in 10.0 mi Calm Calm - N/A Thunderstorm Mostly Cloudy
3:35 PM 60.8 °F 53.6 °F 77% 30.49 in 10.0 mi WSW 8.1 mph - N/A Thunderstorm Scattered Clouds
3:55 PM 62.6 °F 51.8 °F 68% 30.48 in 10.0 mi Calm Calm - N/A Thunderstorm Scattered Clouds
4:15 PM 64.4 °F 50.0 °F 59% 30.48 in 10.0 mi Calm Calm - N/A   Scattered Clouds
4:35 PM 64.4 °F 51.8 °F 64% 30.47 in 10.0 mi West 6.9 mph - N/A   Clear
4:55 PM 66.2 °F 50.0 °F 56% 30.46 in 10.0 mi WSW 6.9 mph - N/A   Clear
5:15 PM 64.4 °F 44.6 °F 49% 30.45 in 10.0 mi West 16.1 mph 21.9 mph N/A Thunderstorm Clear
5:35 PM 62.6 °F 46.4 °F 55% 30.47 in 10.0 mi West 20.7 mph 25.3 mph N/A   Clear
5:55 PM 64.4 °F 44.6 °F 49% 30.47 in 10.0 mi West 12.7 mph 17.3 mph N/A   Mostly Cloudy
6:15 PM 64.4 °F 44.6 °F 49% 30.49 in 10.0 mi West 6.9 mph - N/A Thunderstorm Thunderstorm
6:35 PM 60.8 °F 50.0 °F 68% 30.50 in 3.0 mi ENE 3.5 mph - 0.04 in Rain , Thunderstorm Rain
6:55 PM 57.2 °F 48.2 °F 72% 30.49 in 10.0 mi NNE 3.5 mph - 0.05 in Rain , Thunderstorm Light Thunderstorms and Rain
7:15 PM 59.0 °F 46.4 °F 63% 30.51 in 10.0 mi East 9.2 mph - N/A Thunderstorm Overcast
7:35 PM 59.0 °F 44.6 °F 59% 30.56 in 10.0 mi SE 20.7 mph 34.5 mph N/A Thunderstorm Drizzle
7:55 PM 55.4 °F 46.4 °F 72% 30.59 in 7.0 mi SSE 6.9 mph 21.9 mph N/A Rain , Thunderstorm Rain
8:15 PM 51.8 °F 50.0 °F 94% 30.58 in 7.0 mi Calm Calm - 0.02 in Rain Light Rain
8:35 PM 53.6 °F 48.2 °F 82% 30.56 in 10.0 mi East 12.7 mph 17.3 mph 0.03 in Rain , Thunderstorm Light Thunderstorms and Rain
8:55 PM 55.4 °F 46.4 °F 72% 30.53 in 10.0 mi Calm Calm - 0.03 in   Mostly Cloudy
9:15 PM 55.4 °F 48.2 °F 77% 30.54 in 10.0 mi ESE 11.5 mph - N/A   Scattered Clouds
9:35 PM 51.8 °F 50.0 °F 94% 30.56 in 10.0 mi Calm Calm - N/A   Mostly Cloudy
9:55 PM 51.8 °F 50.0 °F 94% 30.57 in 10.0 mi Calm Calm - N/A   Mostly Cloudy
10:35 PM 53.6 °F 50.0 °F 88% 30.56 in 10.0 mi ESE 4.6 mph - N/A   Scattered Clouds
11:15 PM 53.6 °F 50.0 °F 88% 30.54 in 10.0 mi SE 8.1 mph - N/A   Mostly Cloudy
11:35 PM 51.8 °F 50.0 °F 94% 30.53 in 10.0 mi East 6.9 mph - N/A   Scattered Clouds